Location: Greenwich
(51.4790°N, 0.0090°E)
Time: 13:24:55
(UTC+01:00)

Nauka - Visible Passes

Search period start: 21 September 2021 00:00
Search period end: 01 October 2021 00:00
Orbit: 419 x 423 km, 51.6° (Epoch: 20 September)

Date Brightness Start Highest point End Pass type
(mag) Time Alt. Az. Time Alt. Az. Time Alt. Az.
21 Sep ? 20:43:43 10° WSW 20:47:05 75° SSE 20:47:52 49° E visible
21 Sep ? 22:20:34 10° W 22:20:52 12° W 22:20:52 12° W visible
22 Sep ? 19:56:53 10° WSW 20:00:13 61° SSE 20:02:48 16° E visible
22 Sep ? 21:33:39 10° W 21:35:48 36° W 21:35:48 36° W visible
23 Sep ? 20:46:44 10° W 20:50:07 86° N 20:50:41 60° E visible
23 Sep ? 22:23:37 10° W 22:23:40 10° W 22:23:40 10° W visible
24 Sep ? 19:59:49 10° W 20:03:12 88° S 20:05:32 19° E visible
24 Sep ? 21:36:42 10° W 21:38:32 29° W 21:38:32 29° W visible
25 Sep ? 20:49:47 10° W 20:53:10 89° NNW 20:53:21 80° E visible
26 Sep ? 20:02:52 10° W 20:06:15 85° N 20:08:11 24° E visible
26 Sep ? 21:39:44 10° W 21:41:09 22° W 21:41:09 22° W visible
27 Sep ? 19:15:56 10° W 19:19:19 86° N 19:22:43 10° E visible
27 Sep ? 20:52:49 10° W 20:55:59 65° SW 20:55:59 65° SW visible
28 Sep ? 20:05:53 10° W 20:09:16 81° SSW 20:10:49 30° ESE visible
28 Sep ? 21:42:53 10° W 21:43:49 16° W 21:43:49 16° W visible
29 Sep ? 19:18:57 10° W 19:22:21 90° ESE 19:25:41 10° E visible
29 Sep ? 20:55:51 10° W 20:58:40 37° SW 20:58:40 37° SW visible
30 Sep ? 20:08:53 10° W 20:12:12 51° SSW 20:13:34 29° SE visible
